O'Neill, NE

12:27 AM CDT on July 24, 2017 (GMT -0500)
The O'Neill Municipal-Baker

Weather History for KONL - November, 2015

Change the Weather History Date:

Sunday, November 15, 2015

  Actual Average Record
Temperature  
Mean Temperature 48 °F -  
Max Temperature 60 °F 45 °F 81 °F (1953)
Min Temperature 37 °F 24 °F 1 °F (2014)
Degree Days  
Heating Degree Days 16    
Moisture  
Dew Point 41 °F    
Average Humidity 76    
Maximum Humidity 92    
Minimum Humidity 51    
Precipitation  
Precipitation 0.00 in - - ()
Sea Level Pressure  
Sea Level Pressure 29.84 in    
Wind  
Wind Speed 11 mph (South)    
Max Wind Speed 24 mph    
Max Gust Speed 30 mph    
Visibility 10 miles    
Events      
Averages and records for this station are not official NWS values.
T = Trace of Precipitation, MM = Missing Value Source: NWS Daily Summary

Daily Weather History Graph

Daily Weather History Graph

Search for Another Location

Airport or City:

Trip Planner

Search our weather history database for the weather conditions in past years. The results will help you decide how hot, cold, wet, or windy it might be!

Date:

Astronomy

Nov. 15, 2015 Rise Set
Actual Time 7:25 AM CST 5:12 PM CST
Civil Twilight 6:55 AM CST 5:42 PM CST
Nautical Twilight 6:21 AM CST 6:16 PM CST
Astronomical Twilight 5:48 AM CST 6:50 PM CST
Moon 10:44 AM CST (11/15) 8:46 PM CST (11/15)
Length of Visible Light 10h 47m
Length of Day
9h 47m
Waxing Crescent, 16% of the Moon is Illuminated
Nov 15
Waxing Crescent
Nov 19
First Quarter
Nov 25
Full
Dec 3
Last Quarter
Dec 11
New

Hourly Weather History & Observations

Time (CST) Temp. Windchill Dew Point Humidity Pressure Visibility Wind Dir Wind Speed Gust Speed Precip Events Conditions
12:15 AM 41.9 °F 37.5 °F 35.4 °F 78% 29.97 in 10.0 mi South 6.9 mph - N/A   Clear
12:35 AM 40.6 °F 37.5 °F 34.9 °F 80% 29.97 in 10.0 mi South 4.6 mph - N/A   Clear
12:55 AM 40.8 °F 36.9 °F 34.9 °F 79% 29.96 in 10.0 mi South 5.8 mph - N/A   Clear
1:15 AM 41.2 °F 37.3 °F 34.9 °F 78% 29.96 in 10.0 mi South 5.8 mph - N/A   Clear
1:35 AM 40.3 °F 35.5 °F 34.7 °F 80% 29.96 in 10.0 mi South 6.9 mph - N/A   Clear
1:55 AM 40.5 °F 35.8 °F 34.9 °F 80% 29.95 in 10.0 mi South 6.9 mph - N/A   Clear
2:15 AM 40.1 °F 36.1 °F 34.7 °F 81% 29.96 in 10.0 mi South 5.8 mph - N/A   Clear
2:35 AM 39.7 °F 34.3 °F 34.9 °F 83% 29.96 in 10.0 mi South 8.1 mph - N/A   Clear
2:55 AM 40.6 °F 34.8 °F 35.6 °F 82% 29.95 in 10.0 mi South 9.2 mph - N/A   Clear
3:15 AM 40.1 °F 34.1 °F 35.2 °F 83% 29.95 in 10.0 mi South 9.2 mph - N/A   Clear
3:35 AM 39.7 °F 33.7 °F 35.1 °F 83% 29.95 in 10.0 mi South 9.2 mph - N/A   Clear
3:55 AM 39.4 °F 33.2 °F 34.9 °F 84% 29.95 in 10.0 mi South 9.2 mph - N/A   Clear
4:15 AM 38.7 °F 31.8 °F 34.9 °F 86% 29.94 in 10.0 mi South 10.4 mph - N/A   Clear
4:35 AM 39.2 °F 32.5 °F 35.2 °F 86% 29.94 in 10.0 mi South 10.4 mph - N/A   Clear
4:55 AM 39.2 °F 33.0 °F 35.6 °F 87% 29.95 in 10.0 mi South 9.2 mph - N/A   Clear
5:15 AM 39.2 °F 32.5 °F 35.6 °F 87% 29.94 in 10.0 mi South 10.4 mph - N/A   Clear
5:35 AM 38.7 °F 31.8 °F 35.8 °F 89% 29.93 in 10.0 mi South 10.4 mph - N/A   Clear
5:55 AM 38.5 °F 31.6 °F 35.8 °F 90% 29.93 in 10.0 mi South 10.4 mph - N/A   Clear
6:15 AM 38.8 °F 31.6 °F 36.1 °F 90% 29.93 in 10.0 mi South 11.5 mph - N/A   Clear
6:35 AM 39.2 °F 32.0 °F 36.1 °F 89% 29.93 in 10.0 mi South 11.5 mph - N/A   Clear
6:55 AM 38.5 °F 30.7 °F 36.0 °F 91% 29.93 in 10.0 mi South 12.7 mph - N/A   Clear
7:15 AM 37.9 °F 30.5 °F 35.8 °F 92% 29.92 in 10.0 mi South 11.5 mph - N/A   Clear
7:35 AM 37.8 °F 29.8 °F 35.6 °F 92% 29.92 in 10.0 mi South 12.7 mph - N/A   Clear
7:55 AM 38.7 °F 30.9 °F 35.8 °F 89% 29.92 in 10.0 mi South 12.7 mph - N/A   Clear
8:15 AM 39.4 °F 31.4 °F 36.5 °F 89% 29.92 in 10.0 mi South 13.8 mph - N/A   Clear
8:35 AM 40.8 °F 33.7 °F 37.2 °F 87% 29.91 in 10.0 mi South 12.7 mph - N/A   Clear
8:55 AM 42.3 °F 35.1 °F 38.1 °F 85% 29.91 in 10.0 mi South 13.8 mph - N/A   Clear
9:15 AM 44.2 °F 38.0 °F 38.7 °F 81% 29.91 in 10.0 mi South 12.7 mph - N/A   Clear
9:35 AM 46.8 °F - 39.4 °F 75% 29.91 in 10.0 mi South 10.4 mph - N/A   Clear
9:55 AM 49.1 °F - 39.9 °F 71% 29.90 in 10.0 mi South 10.4 mph - N/A   Clear
10:15 AM 50.2 °F - 39.7 °F 67% 29.90 in 10.0 mi South 13.8 mph - N/A   Clear
10:35 AM 51.4 °F - 39.9 °F 65% 29.90 in 10.0 mi South 10.4 mph 19.6 mph N/A   Clear
10:55 AM 53.4 °F - 40.3 °F 61% 29.89 in 10.0 mi South 10.4 mph - N/A   Clear
11:15 AM 54.5 °F - 40.6 °F 60% 29.89 in 10.0 mi South 13.8 mph - N/A   Clear
11:35 AM 55.4 °F - 40.5 °F 57% 29.88 in 10.0 mi South 15.0 mph - N/A   Clear
11:55 AM 56.3 °F - 40.6 °F 56% 29.87 in 10.0 mi SSE 16.1 mph 21.9 mph N/A   Clear
12:15 PM 57.7 °F - 41.2 °F 54% 29.85 in 10.0 mi South 12.7 mph - N/A   Clear
12:35 PM 58.8 °F - 41.4 °F 52% 29.83 in 10.0 mi South 16.1 mph - N/A   Clear
12:55 PM 59.2 °F - 41.5 °F 52% 29.83 in 10.0 mi SSE 15.0 mph - N/A   Clear
1:15 PM 60.1 °F - 42.1 °F 51% 29.82 in 10.0 mi South 16.1 mph 21.9 mph N/A   Clear
1:35 PM 59.9 °F - 42.1 °F 52% 29.81 in 10.0 mi South 20.7 mph 26.5 mph N/A   Clear
1:55 PM 60.1 °F - 42.4 °F 52% 29.81 in 10.0 mi SSE 18.4 mph 25.3 mph N/A   Clear
2:15 PM 59.9 °F - 42.6 °F 53% 29.80 in 10.0 mi South 18.4 mph 23.0 mph N/A   Clear
2:35 PM 59.5 °F - 43.2 °F 55% 29.79 in 10.0 mi SSE 21.9 mph 25.3 mph N/A   Clear
2:55 PM 59.0 °F - 43.3 °F 56% 29.79 in 10.0 mi South 18.4 mph 28.8 mph N/A   Clear
3:15 PM 58.3 °F - 43.7 °F 58% 29.78 in 10.0 mi SSE 20.7 mph 28.8 mph N/A   Clear
3:35 PM 57.4 °F - 43.7 °F 60% 29.78 in 10.0 mi South 19.6 mph 28.8 mph N/A   Clear
3:55 PM 54.3 °F - 42.8 °F 65% 29.79 in 10.0 mi South 20.7 mph 29.9 mph N/A   Mostly Cloudy
4:15 PM 50.9 °F - 41.9 °F 71% 29.79 in 10.0 mi South 20.7 mph 26.5 mph N/A   Overcast
4:35 PM 50.4 °F - 42.1 °F 73% 29.79 in 10.0 mi South 24.2 mph 28.8 mph N/A   Overcast
4:55 PM 49.6 °F - 42.4 °F 76% 29.79 in 10.0 mi South 20.7 mph 26.5 mph N/A   Overcast
5:15 PM 50.0 °F - 43.3 °F 78% 29.78 in 10.0 mi South 15.0 mph 21.9 mph N/A   Overcast
5:35 PM 50.4 °F - 43.9 °F 78% 29.77 in 10.0 mi South 16.1 mph 20.7 mph N/A   Overcast
5:55 PM 50.4 °F - 44.2 °F 80% 29.77 in 10.0 mi South 13.8 mph 20.7 mph N/A   Overcast
6:15 PM 50.4 °F - 44.6 °F 81% 29.77 in 10.0 mi South 10.4 mph - N/A   Overcast
6:35 PM 50.9 °F - 45.0 °F 80% 29.76 in 10.0 mi South 13.8 mph 18.4 mph N/A   Overcast
6:55 PM 51.1 °F - 45.1 °F 80% 29.76 in 10.0 mi South 11.5 mph - N/A   Overcast
7:15 PM 51.4 °F - 45.5 °F 80% 29.75 in 10.0 mi South 16.1 mph - N/A   Overcast
7:35 PM 51.8 °F - 45.9 °F 80% 29.75 in 10.0 mi South 15.0 mph 20.7 mph N/A   Overcast
7:55 PM 52.3 °F - 46.0 °F 79% 29.74 in 10.0 mi South 15.0 mph 19.6 mph N/A   Overcast
8:15 PM 52.2 °F - 46.0 °F 80% 29.73 in 10.0 mi South 16.1 mph 24.2 mph N/A   Overcast
8:35 PM 51.3 °F - 45.9 °F 82% 29.72 in 10.0 mi SSE 16.1 mph - N/A   Scattered Clouds
8:55 PM 51.1 °F - 46.0 °F 83% 29.72 in 10.0 mi SSE 15.0 mph 20.7 mph N/A   Scattered Clouds
9:15 PM 50.9 °F - 46.4 °F 85% 29.71 in 10.0 mi SSE 13.8 mph 21.9 mph N/A   Clear
9:35 PM 50.7 °F - 47.3 °F 88% 29.70 in 10.0 mi SSE 12.7 mph - N/A   Scattered Clouds
9:55 PM 51.4 °F - 47.5 °F 86% 29.69 in 10.0 mi SSE 16.1 mph - N/A   Overcast
10:15 PM 52.0 °F - 47.5 °F 85% 29.69 in 10.0 mi South 16.1 mph - N/A   Overcast
10:35 PM 52.7 °F - 48.2 °F 85% 29.69 in 10.0 mi South 18.4 mph 23.0 mph N/A   Overcast
10:55 PM 52.7 °F - 48.2 °F 85% 29.68 in 10.0 mi South 16.1 mph 21.9 mph N/A   Overcast
11:15 PM 53.1 °F - 48.6 °F 85% 29.67 in 10.0 mi South 18.4 mph 24.2 mph N/A   Overcast
11:35 PM 53.2 °F - 48.9 °F 85% 29.67 in 10.0 mi South 16.1 mph 21.9 mph N/A   Overcast
11:55 PM 53.4 °F - 49.3 °F 86% 29.66 in 10.0 mi South 13.8 mph 19.6 mph N/A   Overcast